Time,TemperatureF,DewpointF,PressureIn,WindDirection,WindDirectionDegrees,WindSpeedMPH,WindSpeedGustMPH,Humidity,HourlyPrecipIn,Conditions,Clouds,dailyrainin,SoftwareType,DateUTC
2013-03-29 00:00:00,50.8,15.2,30.02,ESE,123,0.0,0.0,24,0.00,,,0.00,Wunderground v.1.15,2013-03-29 06:00:00,
2013-03-29 00:04:00,50.4,14.9,30.03,ESE,123,0.0,0.0,24,0.00,,,0.00,Wunderground v.1.15,2013-03-29 06:04:00,
2013-03-29 00:08:00,49.9,14.5,30.03,SSE,157,0.0,3.0,24,0.00,,,0.00,Wunderground v.1.15,2013-03-29 06:08:00,
2013-03-29 00:10:00,49.9,14.5,30.03,SSE,157,0.0,0.0,24,0.00,,,0.00,Wunderground v.1.15,2013-03-29 06:10:00,
2013-03-29 00:12:00,49.9,15.4,30.03,SSE,157,0.0,0.0,25,0.00,,,0.00,Wunderground v.1.15,2013-03-29 06:12:00,
2013-03-29 00:18:00,49.5,15.1,30.02,SSE,157,0.0,0.0,25,0.00,,,0.00,Wunderground v.1.15,2013-03-29 06:18:00,
2013-03-29 00:20:00,49.4,15.0,30.02,SSE,157,0.0,0.0,25,0.00,,,0.00,Wunderground v.1.15,2013-03-29 06:20:00,
2013-03-29 00:22:00,49.2,14.8,30.02,SSE,157,0.0,0.0,25,0.00,,,0.00,Wunderground v.1.15,2013-03-29 06:22:00,
2013-03-29 00:24:00,49.1,14.7,30.02,SSE,157,0.0,0.0,25,0.00,,,0.00,Wunderground v.1.15,2013-03-29 06:24:00,
2013-03-29 00:30:00,48.5,16.0,30.02,SSE,157,0.0,1.0,27,0.00,,,0.00,Wunderground v.1.15,2013-03-29 06:30:00,
2013-03-29 00:32:00,48.5,16.0,30.02,SSE,157,0.0,1.0,27,0.00,,,0.00,Wunderground v.1.15,2013-03-29 06:32:00,
2013-03-29 00:36:00,48.2,16.6,30.02,SSE,157,0.0,1.0,28,0.00,,,0.00,Wunderground v.1.15,2013-03-29 06:36:00,
2013-03-29 00:40:00,47.9,15.5,30.02,SSE,157,0.0,1.0,27,0.00,,,0.00,Wunderground v.1.15,2013-03-29 06:40:00,
2013-03-29 00:42:00,47.7,15.3,30.02,SSE,157,0.0,1.0,27,0.00,,,0.00,Wunderground v.1.15,2013-03-29 06:42:00,
2013-03-29 00:44:00,47.6,15.2,30.02,SSE,157,0.0,1.0,27,0.00,,,0.00,Wunderground v.1.15,2013-03-29 06:44:00,
2013-03-29 00:48:00,47.3,15.8,30.03,SSE,157,0.0,1.0,28,0.00,,,0.00,Wunderground v.1.15,2013-03-29 06:48:00,
2013-03-29 00:50:00,47.1,14.8,30.03,SSE,157,0.0,1.0,27,0.00,,,0.00,Wunderground v.1.15,2013-03-29 06:50:00,
2013-03-29 00:54:00,46.8,15.4,30.03,SSE,157,0.0,1.0,28,0.00,,,0.00,Wunderground v.1.15,2013-03-29 06:54:00,
2013-03-29 00:56:00,46.8,16.2,30.03,SSE,157,0.0,1.0,29,0.00,,,0.00,Wunderground v.1.15,2013-03-29 06:56:00,
2013-03-29 01:00:00,46.5,16.7,30.03,SSE,157,0.0,0.0,30,0.00,,,0.00,Wunderground v.1.15,2013-03-29 07:00:00,
2013-03-29 01:02:00,46.4,16.6,30.03,SSE,157,0.0,0.0,30,0.00,,,0.00,Wunderground v.1.15,2013-03-29 07:02:00,
2013-03-29 01:04:00,46.2,17.2,30.03,SSE,157,0.0,0.0,31,0.00,,,0.00,Wunderground v.1.15,2013-03-29 07:04:00,
2013-03-29 01:08:00,46.2,17.2,30.03,SSE,157,0.0,0.0,31,0.00,,,0.00,Wunderground v.1.15,2013-03-29 07:08:00,
2013-03-29 01:10:00,46.1,17.1,30.03,SSE,157,0.0,0.0,31,0.00,,,0.00,Wunderground v.1.15,2013-03-29 07:10:00,
2013-03-29 01:14:00,46.1,17.1,30.03,SSE,157,0.0,0.0,31,0.00,,,0.00,Wunderground v.1.15,2013-03-29 07:14:00,
2013-03-29 01:16:00,46.1,17.1,30.05,SSE,157,0.0,0.0,31,0.00,,,0.00,Wunderground v.1.15,2013-03-29 07:16:00,
2013-03-29 01:20:00,46.0,17.7,30.05,SSE,157,0.0,0.0,32,0.00,,,0.00,Wunderground v.1.15,2013-03-29 07:20:00,
2013-03-29 01:22:00,46.0,17.7,30.05,SSE,157,0.0,0.0,32,0.00,,,0.00,Wunderground v.1.15,2013-03-29 07:22:00,
2013-03-29 01:28:00,46.1,17.1,30.05,SSE,157,0.0,0.0,31,0.00,,,0.00,Wunderground v.1.15,2013-03-29 07:28:00,
2013-03-29 01:30:00,46.2,17.2,30.05,SSE,157,0.0,0.0,31,0.00,,,0.00,Wunderground v.1.15,2013-03-29 07:30:00,
2013-03-29 01:34:00,46.4,17.4,30.04,SSE,157,0.0,1.0,31,0.00,,,0.00,Wunderground v.1.15,2013-03-29 07:34:00,
2013-03-29 01:38:00,46.7,17.6,30.04,SSE,157,0.0,1.0,31,0.00,,,0.00,Wunderground v.1.15,2013-03-29 07:38:00,
2013-03-29 01:44:00,47.0,17.9,30.04,SSE,157,0.0,0.0,31,0.00,,,0.00,Wunderground v.1.15,2013-03-29 07:44:00,
2013-03-29 01:50:00,47.0,17.9,30.04,SSE,157,0.0,0.0,31,0.00,,,0.00,Wunderground v.1.15,2013-03-29 07:50:00,
2013-03-29 01:52:00,47.0,17.9,30.04,SSE,157,0.0,0.0,31,0.00,,,0.00,Wunderground v.1.15,2013-03-29 07:52:00,
2013-03-29 01:58:00,46.7,18.4,30.04,SSE,157,0.0,0.0,32,0.00,,,0.00,Wunderground v.1.15,2013-03-29 07:58:00,
2013-03-29 02:00:00,46.5,18.2,30.04,SSE,157,0.0,1.0,32,0.00,,,0.00,Wunderground v.1.15,2013-03-29 08:00:00,
2013-03-29 02:02:00,46.7,17.6,30.04,SSE,157,0.0,1.0,31,0.00,,,0.00,Wunderground v.1.15,2013-03-29 08:02:00,
2013-03-29 02:06:00,46.8,17.7,30.04,SSE,157,0.0,1.0,31,0.00,,,0.00,Wunderground v.1.15,2013-03-29 08:06:00,
2013-03-29 02:08:00,46.8,17.7,30.04,SSE,157,0.0,1.0,31,0.00,,,0.00,Wunderground v.1.15,2013-03-29 08:08:00,
2013-03-29 02:14:00,47.6,18.4,30.04,SSE,157,0.0,0.0,31,0.00,,,0.00,Wunderground v.1.15,2013-03-29 08:14:00,
2013-03-29 02:16:00,47.9,18.7,30.04,SSE,157,0.0,1.0,31,0.00,,,0.00,Wunderground v.1.15,2013-03-29 08:16:00,
2013-03-29 02:18:00,48.0,18.8,30.04,SSE,157,1.0,1.0,31,0.00,,,0.00,Wunderground v.1.15,2013-03-29 08:18:00,
2013-03-29 02:20:00,48.3,19.0,30.04,SSE,157,0.0,0.0,31,0.00,,,0.00,Wunderground v.1.15,2013-03-29 08:20:00,
2013-03-29 02:22:00,48.3,19.0,30.04,SSE,157,1.0,1.0,31,0.00,,,0.00,Wunderground v.1.15,2013-03-29 08:22:00,
2013-03-29 02:24:00,48.3,19.0,30.04,SSE,157,1.0,1.0,31,0.00,,,0.00,Wunderground v.1.15,2013-03-29 08:24:00,
2013-03-29 02:26:00,48.5,18.4,30.04,SE,131,1.0,3.0,30,0.00,,,0.00,Wunderground v.1.15,2013-03-29 08:26:00,
2013-03-29 02:28:00,48.6,18.5,30.04,SE,142,1.0,5.0,30,0.00,,,0.00,Wunderground v.1.15,2013-03-29 08:28:00,
2013-03-29 02:32:00,48.6,18.5,30.03,SSE,148,1.0,2.0,30,0.00,,,0.00,Wunderground v.1.15,2013-03-29 08:32:00,
2013-03-29 02:34:00,48.6,18.5,30.03,SSE,148,1.0,4.0,30,0.00,,,0.00,Wunderground v.1.15,2013-03-29 08:34:00,
2013-03-29 02:38:00,48.5,19.2,30.03,SSE,148,1.0,4.0,31,0.00,,,0.00,Wunderground v.1.15,2013-03-29 08:38:00,
2013-03-29 02:40:00,48.3,19.0,30.03,SSE,148,1.0,1.0,31,0.00,,,0.00,Wunderground v.1.15,2013-03-29 08:40:00,
2013-03-29 02:44:00,48.2,18.9,30.03,SSE,149,1.0,5.0,31,0.00,,,0.00,Wunderground v.1.15,2013-03-29 08:44:00,
2013-03-29 02:46:00,48.2,18.9,30.04,SSE,148,1.0,5.0,31,0.00,,,0.00,Wunderground v.1.15,2013-03-29 08:46:00,
2013-03-29 02:48:00,48.2,18.2,30.04,SE,144,1.0,5.0,30,0.00,,,0.00,Wunderground v.1.15,2013-03-29 08:48:00,
2013-03-29 02:52:00,48.5,18.4,30.04,SSE,157,1.0,4.0,30,0.00,,,0.00,Wunderground v.1.15,2013-03-29 08:52:00,
2013-03-29 02:56:00,48.5,18.4,30.04,SSE,158,1.0,4.0,30,0.00,,,0.00,Wunderground v.1.15,2013-03-29 08:56:00,
2013-03-29 03:00:00,48.3,18.3,30.04,SSE,158,1.0,1.0,30,0.00,,,0.00,Wunderground v.1.15,2013-03-29 09:00:00,
2013-03-29 03:06:00,48.3,17.5,30.04,SSE,158,0.0,5.0,29,0.00,,,0.00,Wunderground v.1.15,2013-03-29 09:06:00,
2013-03-29 03:08:00,48.3,17.5,30.04,SSE,158,0.0,5.0,29,0.00,,,0.00,Wunderground v.1.15,2013-03-29 09:08:00,
2013-03-29 03:10:00,48.3,18.3,30.04,SSE,158,0.0,5.0,30,0.00,,,0.00,Wunderground v.1.15,2013-03-29 09:10:00,
2013-03-29 03:12:00,48.5,17.6,30.04,SSE,158,1.0,5.0,29,0.00,,,0.00,Wunderground v.1.15,2013-03-29 09:12:00,
2013-03-29 03:16:00,48.5,17.6,30.03,SSE,158,0.0,5.0,29,0.00,,,0.00,Wunderground v.1.15,2013-03-29 09:16:00,
2013-03-29 03:18:00,48.5,16.8,30.03,SSE,158,0.0,5.0,28,0.00,,,0.00,Wunderground v.1.15,2013-03-29 09:18:00,
2013-03-29 03:20:00,48.6,17.7,30.03,SSE,158,0.0,5.0,29,0.00,,,0.00,Wunderground v.1.15,2013-03-29 09:20:00,
2013-03-29 03:24:00,48.6,17.7,30.03,SSE,158,0.0,5.0,29,0.00,,,0.00,Wunderground v.1.15,2013-03-29 09:24:00,
2013-03-29 03:26:00,48.6,17.7,30.03,SSE,158,0.0,5.0,29,0.00,,,0.00,Wunderground v.1.15,2013-03-29 09:26:00,
2013-03-29 03:28:00,48.6,17.7,30.03,SSE,158,0.0,5.0,29,0.00,,,0.00,Wunderground v.1.15,2013-03-29 09:28:00,
2013-03-29 03:30:00,48.6,17.7,30.03,SSE,158,0.0,3.0,29,0.00,,,0.00,Wunderground v.1.15,2013-03-29 09:30:00,
2013-03-29 03:34:00,48.5,17.6,30.03,SSE,158,0.0,3.0,29,0.00,,,0.00,Wunderground v.1.15,2013-03-29 09:34:00,
2013-03-29 03:38:00,48.3,18.3,30.03,SSE,158,0.0,3.0,30,0.00,,,0.00,Wunderground v.1.15,2013-03-29 09:38:00,
2013-03-29 03:44:00,48.2,18.9,30.03,SSE,158,0.0,3.0,31,0.00,,,0.00,Wunderground v.1.15,2013-03-29 09:44:00,
2013-03-29 03:46:00,48.0,18.8,30.03,SSE,158,0.0,3.0,31,0.00,,,0.00,Wunderground v.1.15,2013-03-29 09:46:00,
2013-03-29 03:48:00,48.0,18.8,30.03,SSE,158,0.0,3.0,31,0.00,,,0.00,Wunderground v.1.15,2013-03-29 09:48:00,
2013-03-29 03:50:00,47.9,18.7,30.03,SSE,158,0.0,3.0,31,0.00,,,0.00,Wunderground v.1.15,2013-03-29 09:50:00,
2013-03-29 03:54:00,47.9,18.7,30.03,SSE,158,0.0,3.0,31,0.00,,,0.00,Wunderground v.1.15,2013-03-29 09:54:00,
2013-03-29 03:56:00,47.7,18.5,30.03,SSE,158,0.0,3.0,31,0.00,,,0.00,Wunderground v.1.15,2013-03-29 09:56:00,
2013-03-29 03:58:00,47.7,18.5,30.03,SSE,158,0.0,3.0,31,0.00,,,0.00,Wunderground v.1.15,2013-03-29 09:58:00,
2013-03-29 04:02:00,47.6,18.4,30.03,SSE,158,0.0,3.0,31,0.00,,,0.00,Wunderground v.1.15,2013-03-29 10:02:00,
2013-03-29 04:04:00,47.6,18.4,30.03,SSE,158,0.0,3.0,31,0.00,,,0.00,Wunderground v.1.15,2013-03-29 10:04:00,
2013-03-29 04:06:00,47.6,18.4,30.03,SSE,158,0.0,3.0,31,0.00,,,0.00,Wunderground v.1.15,2013-03-29 10:06:00,
2013-03-29 04:08:00,47.6,18.4,30.03,SSE,158,0.0,3.0,31,0.00,,,0.00,Wunderground v.1.15,2013-03-29 10:08:00,
2013-03-29 04:12:00,47.4,19.0,30.03,SSE,158,0.0,3.0,32,0.00,,,0.00,Wunderground v.1.15,2013-03-29 10:12:00,
2013-03-29 04:14:00,47.3,18.9,30.03,SSE,158,0.0,3.0,32,0.00,,,0.00,Wunderground v.1.15,2013-03-29 10:14:00,
2013-03-29 04:20:00,47.1,18.7,30.06,SSE,158,0.0,3.0,32,0.00,,,0.00,Wunderground v.1.15,2013-03-29 10:20:00,
2013-03-29 04:24:00,47.1,18.0,30.06,SSE,158,0.0,3.0,31,0.00,,,0.00,Wunderground v.1.15,2013-03-29 10:24:00,
2013-03-29 04:28:00,47.3,18.9,30.06,SSE,158,0.0,3.0,32,0.00,,,0.00,Wunderground v.1.15,2013-03-29 10:28:00,
2013-03-29 04:34:00,47.0,18.6,30.06,SSE,158,0.0,1.0,32,0.00,,,0.00,Wunderground v.1.15,2013-03-29 10:34:00,
2013-03-29 04:36:00,47.0,18.6,30.06,SSE,158,0.0,1.0,32,0.00,,,0.00,Wunderground v.1.15,2013-03-29 10:36:00,
2013-03-29 04:40:00,46.8,19.2,30.06,SSE,158,0.0,1.0,33,0.00,,,0.00,Wunderground v.1.15,2013-03-29 10:40:00,
2013-03-29 04:44:00,46.5,18.9,30.06,SSE,158,0.0,1.0,33,0.00,,,0.00,Wunderground v.1.15,2013-03-29 10:44:00,
2013-03-29 04:50:00,46.1,19.9,30.06,SSE,158,0.0,1.0,35,0.00,,,0.00,Wunderground v.1.15,2013-03-29 10:50:00,
2013-03-29 04:56:00,45.7,19.6,30.06,NW,313,0.0,2.0,35,0.00,,,0.00,Wunderground v.1.15,2013-03-29 10:56:00,
2013-03-29 04:58:00,45.5,20.1,30.06,NW,313,1.0,2.0,36,0.00,,,0.00,Wunderground v.1.15,2013-03-29 10:58:00,
2013-03-29 05:00:00,45.4,20.0,30.06,NW,313,1.0,1.0,36,0.00,,,0.00,Wunderground v.1.15,2013-03-29 11:00:00,
2013-03-29 05:02:00,45.4,20.0,30.09,NW,313,0.0,5.0,36,0.00,,,0.00,Wunderground v.1.15,2013-03-29 11:02:00,
2013-03-29 05:04:00,45.4,20.0,30.09,NW,313,0.0,5.0,36,0.00,,,0.00,Wunderground v.1.15,2013-03-29 11:04:00,
2013-03-29 05:08:00,45.1,19.7,30.09,NW,313,0.0,5.0,36,0.00,,,0.00,Wunderground v.1.15,2013-03-29 11:08:00,
2013-03-29 05:10:00,45.1,20.3,30.09,NW,313,0.0,5.0,37,0.00,,,0.00,Wunderground v.1.15,2013-03-29 11:10:00,
2013-03-29 05:12:00,44.9,20.2,30.09,NW,313,0.0,5.0,37,0.00,,,0.00,Wunderground v.1.15,2013-03-29 11:12:00,
2013-03-29 05:18:00,44.3,20.3,30.10,NW,313,0.0,5.0,38,0.00,,,0.00,Wunderground v.1.15,2013-03-29 11:18:00,
2013-03-29 05:20:00,44.1,20.1,30.10,NW,313,0.0,5.0,38,0.00,,,0.00,Wunderground v.1.15,2013-03-29 11:20:00,
2013-03-29 05:22:00,43.9,19.9,30.10,NW,313,0.0,5.0,38,0.00,,,0.00,Wunderground v.1.15,2013-03-29 11:22:00,
2013-03-29 05:24:00,43.8,20.4,30.10,NW,313,0.0,5.0,39,0.00,,,0.00,Wunderground v.1.15,2013-03-29 11:24:00,
2013-03-29 05:28:00,43.6,19.6,30.10,NW,313,0.0,5.0,38,0.00,,,0.00,Wunderground v.1.15,2013-03-29 11:28:00,
2013-03-29 05:30:00,43.6,19.6,30.11,NW,313,0.0,3.0,38,0.00,,,0.00,Wunderground v.1.15,2013-03-29 11:30:00,
2013-03-29 05:34:00,43.5,20.2,30.11,NW,313,0.0,3.0,39,0.00,,,0.00,Wunderground v.1.15,2013-03-29 11:34:00,
2013-03-29 05:38:00,43.2,19.9,30.11,NW,313,0.0,3.0,39,0.00,,,0.00,Wunderground v.1.15,2013-03-29 11:38:00,
2013-03-29 05:42:00,42.8,19.5,30.11,NW,313,0.0,3.0,39,0.00,,,0.00,Wunderground v.1.15,2013-03-29 11:42:00,
2013-03-29 05:44:00,42.6,19.9,30.11,NW,313,0.0,3.0,40,0.00,,,0.00,Wunderground v.1.15,2013-03-29 11:44:00,
2013-03-29 05:48:00,42.2,19.6,30.13,NW,313,1.0,3.0,40,0.00,,,0.00,Wunderground v.1.15,2013-03-29 11:48:00,
2013-03-29 05:50:00,42.3,19.7,30.13,NW,313,1.0,1.0,40,0.00,,,0.00,Wunderground v.1.15,2013-03-29 11:50:00,
2013-03-29 05:54:00,42.2,19.6,30.13,NW,313,1.0,3.0,40,0.00,,,0.00,Wunderground v.1.15,2013-03-29 11:54:00,
2013-03-29 05:56:00,42.2,20.2,30.13,NW,313,1.0,3.0,41,0.00,,,0.00,Wunderground v.1.15,2013-03-29 11:56:00,
2013-03-29 05:58:00,42.2,20.2,30.13,NW,313,0.0,3.0,41,0.00,,,0.00,Wunderground v.1.15,2013-03-29 11:58:00,
2013-03-29 06:00:00,42.1,20.1,30.13,NW,313,0.0,4.0,41,0.00,,,0.00,Wunderground v.1.15,2013-03-29 12:00:00,
2013-03-29 06:02:00,42.1,20.1,30.13,NW,313,0.0,4.0,41,0.00,,,0.00,Wunderground v.1.15,2013-03-29 12:02:00,
2013-03-29 06:06:00,41.8,20.4,30.13,ESE,115,1.0,4.0,42,0.00,,,0.00,Wunderground v.1.15,2013-03-29 12:06:00,
2013-03-29 06:08:00,41.8,20.4,30.13,ESE,109,1.0,4.0,42,0.00,,,0.00,Wunderground v.1.15,2013-03-29 12:08:00,
2013-03-29 06:10:00,41.9,20.4,30.13,ESE,109,1.0,1.0,42,0.00,,,0.00,Wunderground v.1.15,2013-03-29 12:10:00,
2013-03-29 06:12:00,41.9,19.9,30.13,ESE,109,1.0,2.0,41,0.00,,,0.00,Wunderground v.1.15,2013-03-29 12:12:00,
2013-03-29 06:18:00,42.2,19.6,30.13,SE,133,1.0,5.0,40,0.00,,,0.00,Wunderground v.1.15,2013-03-29 12:18:00,
2013-03-29 06:20:00,42.2,19.6,30.13,East,97,1.0,4.0,40,0.00,,,0.00,Wunderground v.1.15,2013-03-29 12:20:00,
2013-03-29 06:24:00,42.2,19.0,30.13,ESE,113,2.0,5.0,39,0.00,,,0.00,Wunderground v.1.15,2013-03-29 12:24:00,
2013-03-29 06:26:00,42.2,19.0,30.13,ESE,118,2.0,5.0,39,0.00,,,0.00,Wunderground v.1.15,2013-03-29 12:26:00,
2013-03-29 06:28:00,42.2,19.0,30.13,ESE,111,2.0,5.0,39,0.00,,,0.00,Wunderground v.1.15,2013-03-29 12:28:00,
2013-03-29 06:32:00,42.3,19.1,30.13,SSE,155,2.0,5.0,39,0.00,,,0.00,Wunderground v.1.15,2013-03-29 12:32:00,
2013-03-29 06:34:00,42.3,19.7,30.13,SSE,155,2.0,5.0,40,0.00,,,0.00,Wunderground v.1.15,2013-03-29 12:34:00,
2013-03-29 06:40:00,41.8,19.2,30.13,SE,139,2.0,5.0,40,0.00,,,0.00,Wunderground v.1.15,2013-03-29 12:40:00,
2013-03-29 06:42:00,41.9,19.3,30.13,SE,140,3.0,5.0,40,0.00,,,0.00,Wunderground v.1.15,2013-03-29 12:42:00,
2013-03-29 06:44:00,42.1,19.5,30.13,SSE,165,3.0,5.0,40,0.00,,,0.00,Wunderground v.1.15,2013-03-29 12:44:00,
2013-03-29 06:48:00,41.9,19.3,30.12,South,172,4.0,6.0,40,0.00,,,0.00,Wunderground v.1.15,2013-03-29 12:48:00,
2013-03-29 06:52:00,42.1,19.5,30.12,South,182,4.0,7.0,40,0.00,,,0.00,Wunderground v.1.15,2013-03-29 12:52:00,
2013-03-29 06:54:00,42.2,19.6,30.12,South,180,4.0,7.0,40,0.00,,,0.00,Wunderground v.1.15,2013-03-29 12:54:00,
2013-03-29 06:58:00,42.5,19.3,30.12,South,180,4.0,7.0,39,0.00,,,0.00,Wunderground v.1.15,2013-03-29 12:58:00,
2013-03-29 07:00:00,42.6,19.3,30.12,SE,146,4.0,4.0,39,0.00,,,0.00,Wunderground v.1.15,2013-03-29 13:00:00,
2013-03-29 07:04:00,42.9,19.0,30.13,South,169,3.0,14.0,38,0.00,,,0.00,Wunderground v.1.15,2013-03-29 13:04:00,
2013-03-29 07:06:00,43.1,19.2,30.13,South,180,3.0,14.0,38,0.00,,,0.00,Wunderground v.1.15,2013-03-29 13:06:00,
2013-03-29 07:10:00,43.1,18.6,30.13,SE,140,2.0,2.0,37,0.00,,,0.00,Wunderground v.1.15,2013-03-29 13:10:00,
2013-03-29 07:14:00,42.9,18.4,30.13,SE,140,1.0,14.0,37,0.00,,,0.00,Wunderground v.1.15,2013-03-29 13:14:00,
2013-03-29 07:16:00,42.8,18.9,30.15,SE,140,0.0,14.0,38,0.00,,,0.00,Wunderground v.1.15,2013-03-29 13:16:00,
2013-03-29 07:18:00,42.8,18.9,30.15,SE,140,0.0,14.0,38,0.00,,,0.00,Wunderground v.1.15,2013-03-29 13:18:00,
2013-03-29 07:20:00,42.6,18.7,30.15,SE,140,0.0,14.0,38,0.00,,,0.00,Wunderground v.1.15,2013-03-29 13:20:00,
2013-03-29 07:24:00,42.3,19.1,30.15,SE,140,0.0,14.0,39,0.00,,,0.00,Wunderground v.1.15,2013-03-29 13:24:00,
2013-03-29 07:28:00,42.3,19.7,30.15,SE,140,0.0,14.0,40,0.00,,,0.00,Wunderground v.1.15,2013-03-29 13:28:00,
2013-03-29 07:34:00,42.1,20.1,30.17,ESE,117,1.0,3.0,41,0.00,,,0.00,Wunderground v.1.15,2013-03-29 13:34:00,
2013-03-29 07:38:00,42.2,20.2,30.17,ESE,117,1.0,3.0,41,0.00,,,0.00,Wunderground v.1.15,2013-03-29 13:38:00,
2013-03-29 07:40:00,42.2,19.6,30.17,ESE,117,1.0,2.0,40,0.00,,,0.00,Wunderground v.1.15,2013-03-29 13:40:00,
2013-03-29 07:42:00,42.3,19.7,30.17,ESE,117,1.0,3.0,40,0.00,,,0.00,Wunderground v.1.15,2013-03-29 13:42:00,
2013-03-29 07:44:00,42.5,19.8,30.17,East,95,1.0,3.0,40,0.00,,,0.00,Wunderground v.1.15,2013-03-29 13:44:00,
2013-03-29 07:48:00,43.1,19.8,30.16,ESE,117,1.0,3.0,39,0.00,,,0.00,Wunderground v.1.15,2013-03-29 13:48:00,
2013-03-29 07:50:00,43.5,19.5,30.16,ESE,117,1.0,1.0,38,0.00,,,0.00,Wunderground v.1.15,2013-03-29 13:50:00,
2013-03-29 07:54:00,44.3,19.6,30.16,East,100,1.0,5.0,37,0.00,,,0.00,Wunderground v.1.15,2013-03-29 13:54:00,
2013-03-29 07:56:00,44.9,18.9,30.16,ESE,115,1.0,5.0,35,0.00,,,0.00,Wunderground v.1.15,2013-03-29 13:56:00,
2013-03-29 08:00:00,45.8,19.7,30.16,SSE,149,2.0,2.0,35,0.00,,,0.00,Wunderground v.1.15,2013-03-29 14:00:00,
2013-03-29 08:02:00,46.1,19.9,30.15,SSE,149,2.0,7.0,35,0.00,,,0.00,Wunderground v.1.15,2013-03-29 14:02:00,
2013-03-29 08:06:00,46.5,19.6,30.15,SSE,161,2.0,7.0,34,0.00,,,0.00,Wunderground v.1.15,2013-03-29 14:06:00,
2013-03-29 08:08:00,47.0,20.0,30.15,SE,130,2.0,7.0,34,0.00,,,0.00,Wunderground v.1.15,2013-03-29 14:08:00,
2013-03-29 08:10:00,47.3,18.9,30.15,SE,128,1.0,7.0,32,0.00,,,0.00,Wunderground v.1.15,2013-03-29 14:10:00,
2013-03-29 08:12:00,47.7,18.5,30.15,ESE,111,1.0,7.0,31,0.00,,,0.00,Wunderground v.1.15,2013-03-29 14:12:00,
2013-03-29 08:16:00,48.5,17.6,30.15,SE,138,2.0,7.0,29,0.00,,,0.00,Wunderground v.1.15,2013-03-29 14:16:00,
2013-03-29 08:18:00,48.8,17.9,30.15,East,97,2.0,7.0,29,0.00,,,0.00,Wunderground v.1.15,2013-03-29 14:18:00,
2013-03-29 08:20:00,49.2,17.4,30.15,ESE,105,3.0,3.0,28,0.00,,,0.00,Wunderground v.1.15,2013-03-29 14:20:00,
2013-03-29 08:24:00,49.6,17.8,30.15,ENE,76,3.0,7.0,28,0.00,,,0.00,Wunderground v.1.15,2013-03-29 14:24:00,
2013-03-29 08:26:00,49.9,18.0,30.15,ESE,123,3.0,7.0,28,0.00,,,0.00,Wunderground v.1.15,2013-03-29 14:26:00,
2013-03-29 08:30:00,50.5,17.7,30.15,SE,125,2.0,2.0,27,0.00,,,0.00,Wunderground v.1.15,2013-03-29 14:30:00,
2013-03-29 08:32:00,51.0,18.1,30.14,SE,124,1.0,3.0,27,0.00,,,0.00,Wunderground v.1.15,2013-03-29 14:32:00,
2013-03-29 08:36:00,51.7,19.6,30.14,ESE,121,1.0,8.0,28,0.00,,,0.00,Wunderground v.1.15,2013-03-29 14:36:00,
2013-03-29 08:38:00,51.9,19.8,30.14,ESE,115,1.0,8.0,28,0.00,,,0.00,Wunderground v.1.15,2013-03-29 14:38:00,
2013-03-29 08:40:00,51.9,18.9,30.14,ESE,116,1.0,1.0,27,0.00,,,0.00,Wunderground v.1.15,2013-03-29 14:40:00,
2013-03-29 08:44:00,51.6,18.7,30.14,ESE,119,1.0,3.0,27,0.00,,,0.00,Wunderground v.1.15,2013-03-29 14:44:00,
2013-03-29 08:50:00,51.3,18.4,30.14,ESE,122,1.0,1.0,27,0.00,,,0.00,Wunderground v.1.15,2013-03-29 14:50:00,
2013-03-29 08:54:00,52.2,19.2,30.14,ESE,105,1.0,8.0,27,0.00,,,0.00,Wunderground v.1.15,2013-03-29 14:54:00,
2013-03-29 08:56:00,52.8,20.5,30.14,ESE,105,1.0,8.0,28,0.00,,,0.00,Wunderground v.1.15,2013-03-29 14:56:00,
2013-03-29 08:58:00,53.1,20.0,30.14,ESE,105,0.0,8.0,27,0.00,,,0.00,Wunderground v.1.15,2013-03-29 14:58:00,
2013-03-29 09:00:00,53.6,20.4,30.14,ESE,105,1.0,6.0,27,0.00,,,0.00,Wunderground v.1.15,2013-03-29 15:00:00,
2013-03-29 09:02:00,53.8,20.6,30.11,South,173,1.0,6.0,27,0.00,,,0.00,Wunderground v.1.15,2013-03-29 15:02:00,
2013-03-29 09:08:00,54.7,20.4,30.11,ESE,105,2.0,6.0,26,0.00,,,0.00,Wunderground v.1.15,2013-03-29 15:08:00,
2013-03-29 09:12:00,55.0,20.7,30.11,SE,130,2.0,6.0,26,0.00,,,0.00,Wunderground v.1.15,2013-03-29 15:12:00,
2013-03-29 09:14:00,55.1,20.8,30.11,SE,130,2.0,6.0,26,0.00,,,0.00,Wunderground v.1.15,2013-03-29 15:14:00,
2013-03-29 09:18:00,55.7,20.4,30.11,SE,132,1.0,6.0,25,0.00,,,0.00,Wunderground v.1.15,2013-03-29 15:18:00,
2013-03-29 09:20:00,55.9,19.6,30.11,SE,128,1.0,1.0,24,0.00,,,0.00,Wunderground v.1.15,2013-03-29 15:20:00,
2013-03-29 09:24:00,56.0,19.7,30.11,SE,128,1.0,6.0,24,0.00,,,0.00,Wunderground v.1.15,2013-03-29 15:24:00,
2013-03-29 09:28:00,56.3,19.9,30.11,ESE,114,2.0,6.0,24,0.00,,,0.00,Wunderground v.1.15,2013-03-29 15:28:00,
2013-03-29 09:30:00,56.6,20.2,30.11,ESE,115,1.0,5.0,24,0.00,,,0.00,Wunderground v.1.15,2013-03-29 15:30:00,
2013-03-29 09:32:00,56.7,19.3,30.10,ESE,114,1.0,5.0,23,0.00,,,0.00,Wunderground v.1.15,2013-03-29 15:32:00,
2013-03-29 09:38:00,57.3,19.8,30.10,ESE,102,2.0,5.0,23,0.00,,,0.00,Wunderground v.1.15,2013-03-29 15:38:00,
2013-03-29 09:40:00,57.6,21.0,30.10,ESE,104,2.0,5.0,24,0.00,,,0.00,Wunderground v.1.15,2013-03-29 15:40:00,
2013-03-29 09:44:00,58.3,19.6,30.10,ESE,114,2.0,5.0,22,0.00,,,0.00,Wunderground v.1.15,2013-03-29 15:44:00,
2013-03-29 09:48:00,58.4,20.7,30.10,SE,136,2.0,6.0,23,0.00,,,0.00,Wunderground v.1.15,2013-03-29 15:48:00,
2013-03-29 09:50:00,58.7,19.9,30.10,SE,136,2.0,2.0,22,0.00,,,0.00,Wunderground v.1.15,2013-03-29 15:50:00,
2013-03-29 09:52:00,59.0,20.2,30.10,SE,136,2.0,5.0,22,0.00,,,0.00,Wunderground v.1.15,2013-03-29 15:52:00,
2013-03-29 09:58:00,59.5,20.6,30.10,SE,136,1.0,5.0,22,0.00,,,0.00,Wunderground v.1.15,2013-03-29 15:58:00,
2013-03-29 10:00:00,59.9,19.8,30.10,SE,136,1.0,7.0,21,0.00,,,0.00,Wunderground v.1.15,2013-03-29 16:00:00,
2013-03-29 10:04:00,60.2,20.1,30.08,SE,137,1.0,7.0,21,0.00,,,0.00,Wunderground v.1.15,2013-03-29 16:04:00,
2013-03-29 10:10:00,60.7,20.5,30.08,SE,138,1.0,1.0,21,0.00,,,0.00,Wunderground v.1.15,2013-03-29 16:10:00,
2013-03-29 10:12:00,60.9,19.5,30.08,SE,138,1.0,7.0,20,0.00,,,0.00,Wunderground v.1.15,2013-03-29 16:12:00,
2013-03-29 10:14:00,61.0,20.7,30.08,SE,138,1.0,7.0,21,0.00,,,0.00,Wunderground v.1.15,2013-03-29 16:14:00,
2013-03-29 10:18:00,60.7,20.5,30.08,SE,138,1.0,7.0,21,0.00,,,0.00,Wunderground v.1.15,2013-03-29 16:18:00,
2013-03-29 10:20:00,60.7,19.3,30.08,SE,138,1.0,1.0,20,0.00,,,0.00,Wunderground v.1.15,2013-03-29 16:20:00,
2013-03-29 10:24:00,60.9,19.5,30.08,SE,139,1.0,7.0,20,0.00,,,0.00,Wunderground v.1.15,2013-03-29 16:24:00,
2013-03-29 10:26:00,61.0,20.7,30.08,SE,139,1.0,7.0,21,0.00,,,0.00,Wunderground v.1.15,2013-03-29 16:26:00,
2013-03-29 10:28:00,61.0,19.6,30.08,SE,144,1.0,7.0,20,0.00,,,0.00,Wunderground v.1.15,2013-03-29 16:28:00,
2013-03-29 10:30:00,61.2,20.9,30.08,SE,144,1.0,5.0,21,0.00,,,0.00,Wunderground v.1.15,2013-03-29 16:30:00,
2013-03-29 10:34:00,61.5,20.0,30.07,SE,144,1.0,5.0,20,0.00,,,0.00,Wunderground v.1.15,2013-03-29 16:34:00,
2013-03-29 10:40:00,61.8,19.0,30.07,North,5,1.0,5.0,19,0.00,,,0.00,Wunderground v.1.15,2013-03-29 16:40:00,
2013-03-29 10:42:00,61.5,18.8,30.07,North,11,2.0,5.0,19,0.00,,,0.00,Wunderground v.1.15,2013-03-29 16:42:00,
2013-03-29 10:46:00,61.8,19.0,30.07,NNE,14,2.0,5.0,19,0.00,,,0.00,Wunderground v.1.15,2013-03-29 16:46:00,
2013-03-29 10:48:00,61.8,20.3,30.07,WNW,286,1.0,5.0,20,0.00,,,0.00,Wunderground v.1.15,2013-03-29 16:48:00,
2013-03-29 10:50:00,62.0,19.2,30.07,NE,40,1.0,5.0,19,0.00,,,0.00,Wunderground v.1.15,2013-03-29 16:50:00,
2013-03-29 10:52:00,62.3,19.5,30.07,NE,40,1.0,5.0,19,0.00,,,0.00,Wunderground v.1.15,2013-03-29 16:52:00,
2013-03-29 10:54:00,62.6,19.7,30.07,NE,40,1.0,5.0,19,0.00,,,0.00,Wunderground v.1.15,2013-03-29 16:54:00,
2013-03-29 10:58:00,62.4,19.5,30.07,NW,313,2.0,5.0,19,0.00,,,0.00,Wunderground v.1.15,2013-03-29 16:58:00,
2013-03-29 11:00:00,62.1,19.3,30.07,NW,306,2.0,6.0,19,0.00,,,0.00,Wunderground v.1.15,2013-03-29 17:00:00,
2013-03-29 11:04:00,61.8,20.3,30.07,NW,309,3.0,6.0,20,0.00,,,0.00,Wunderground v.1.15,2013-03-29 17:04:00,
2013-03-29 11:10:00,61.8,20.3,30.07,NW,308,2.0,2.0,20,0.00,,,0.00,Wunderground v.1.15,2013-03-29 17:10:00,
2013-03-29 11:12:00,62.1,19.3,30.07,NW,308,2.0,6.0,19,0.00,,,0.00,Wunderground v.1.15,2013-03-29 17:12:00,
2013-03-29 11:18:00,62.9,20.0,30.08,North,355,1.0,6.0,19,0.00,,,0.00,Wunderground v.1.15,2013-03-29 17:18:00,
2013-03-29 11:20:00,63.1,20.1,30.08,WNW,295,1.0,1.0,19,0.00,,,0.00,Wunderground v.1.15,2013-03-29 17:20:00,
2013-03-29 11:22:00,63.2,20.2,30.08,North,5,1.0,5.0,19,0.00,,,0.00,Wunderground v.1.15,2013-03-29 17:22:00,
2013-03-29 11:26:00,62.9,20.0,30.08,NW,311,2.0,6.0,19,0.00,,,0.00,Wunderground v.1.15,2013-03-29 17:26:00,
2013-03-29 11:32:00,63.1,20.1,30.08,NW,306,3.0,6.0,19,0.00,,,0.00,Wunderground v.1.15,2013-03-29 17:32:00,
2013-03-29 11:34:00,63.5,20.5,30.08,NW,325,2.0,6.0,19,0.00,,,0.00,Wunderground v.1.15,2013-03-29 17:34:00,
2013-03-29 11:38:00,63.4,20.4,30.08,NNW,340,2.0,7.0,19,0.00,,,0.00,Wunderground v.1.15,2013-03-29 17:38:00,
2013-03-29 11:44:00,62.9,20.0,30.08,WNW,300,5.0,9.0,19,0.00,,,0.00,Wunderground v.1.15,2013-03-29 17:44:00,
2013-03-29 11:50:00,63.4,20.4,30.08,North,5,4.0,4.0,19,0.00,,,0.00,Wunderground v.1.15,2013-03-29 17:50:00,
2013-03-29 11:54:00,62.9,20.0,30.08,NNW,348,4.0,9.0,19,0.00,,,0.00,Wunderground v.1.15,2013-03-29 17:54:00,
2013-03-29 11:58:00,62.6,20.9,30.08,NNW,336,5.0,9.0,20,0.00,,,0.00,Wunderground v.1.15,2013-03-29 17:58:00,
2013-03-29 12:02:00,62.6,19.7,30.07,NW,312,5.0,13.0,19,0.00,,,0.00,Wunderground v.1.15,2013-03-29 18:02:00,
2013-03-29 12:04:00,62.4,20.8,30.07,North,32767,5.0,13.0,20,0.00,,,0.00,Wunderground v.1.15,2013-03-29 18:04:00,
2013-03-29 12:06:00,62.7,21.0,30.07,North,5,4.0,13.0,20,0.00,,,0.00,Wunderground v.1.15,2013-03-29 18:06:00,
2013-03-29 12:10:00,63.1,20.1,30.07,North,5,3.0,3.0,19,0.00,,,0.00,Wunderground v.1.15,2013-03-29 18:10:00,
2013-03-29 12:12:00,62.9,18.7,30.07,ENE,65,3.0,13.0,18,0.00,,,0.00,Wunderground v.1.15,2013-03-29 18:12:00,
2013-03-29 12:14:00,62.9,20.0,30.07,NNE,28,3.0,13.0,19,0.00,,,0.00,Wunderground v.1.15,2013-03-29 18:14:00,
2013-03-29 12:18:00,63.4,20.4,30.10,NNE,24,3.0,13.0,19,0.00,,,0.00,Wunderground v.1.15,2013-03-29 18:18:00,
2013-03-29 12:20:00,63.5,19.2,30.10,NNE,28,2.0,13.0,18,0.00,,,0.00,Wunderground v.1.15,2013-03-29 18:20:00,
2013-03-29 12:28:00,63.9,20.8,30.10,NNW,334,2.0,13.0,19,0.00,,,0.00,Wunderground v.1.15,2013-03-29 18:28:00,
2013-03-29 12:30:00,63.9,20.8,30.10,NNE,29,2.0,7.0,19,0.00,,,0.00,Wunderground v.1.15,2013-03-29 18:30:00,
2013-03-29 12:34:00,63.7,20.6,30.09,WNW,297,2.0,7.0,19,0.00,,,0.00,Wunderground v.1.15,2013-03-29 18:34:00,
2013-03-29 12:36:00,63.7,19.3,30.09,NNE,31,3.0,7.0,18,0.00,,,0.00,Wunderground v.1.15,2013-03-29 18:36:00,
2013-03-29 12:40:00,63.9,20.8,30.09,NW,309,3.0,10.0,19,0.00,,,0.00,Wunderground v.1.15,2013-03-29 18:40:00,
2013-03-29 12:42:00,64.0,20.9,30.09,North,350,4.0,10.0,19,0.00,,,0.00,Wunderground v.1.15,2013-03-29 18:42:00,
2013-03-29 12:44:00,64.3,19.8,30.09,WNW,289,4.0,10.0,18,0.00,,,0.00,Wunderground v.1.15,2013-03-29 18:44:00,
2013-03-29 12:46:00,64.5,20.0,30.08,WSW,238,4.0,10.0,18,0.00,,,0.00,Wunderground v.1.15,2013-03-29 18:46:00,
2013-03-29 12:48:00,64.7,20.2,30.08,WSW,238,3.0,10.0,18,0.00,,,0.00,Wunderground v.1.15,2013-03-29 18:48:00,
2013-03-29 12:52:00,65.2,20.6,30.08,WSW,245,2.0,7.0,18,0.00,,,0.00,Wunderground v.1.15,2013-03-29 18:52:00,
2013-03-29 12:54:00,65.3,20.7,30.08,WSW,246,2.0,7.0,18,0.00,,,0.00,Wunderground v.1.15,2013-03-29 18:54:00,
2013-03-29 12:58:00,65.6,20.9,30.08,SW,234,2.0,7.0,18,0.00,,,0.00,Wunderground v.1.15,2013-03-29 18:58:00,
2013-03-29 13:00:00,65.6,19.6,30.08,WNW,283,2.0,2.0,17,0.00,,,0.00,Wunderground v.1.15,2013-03-29 19:00:00,
2013-03-29 13:04:00,65.2,19.2,30.06,WNW,295,2.0,7.0,17,0.00,,,0.00,Wunderground v.1.15,2013-03-29 19:04:00,
2013-03-29 13:06:00,65.2,19.2,30.06,WNW,295,2.0,7.0,17,0.00,,,0.00,Wunderground v.1.15,2013-03-29 19:06:00,
2013-03-29 13:08:00,65.3,20.7,30.06,NE,36,1.0,7.0,18,0.00,,,0.00,Wunderground v.1.15,2013-03-29 19:08:00,
2013-03-29 13:10:00,65.3,20.7,30.06,NE,39,2.0,9.0,18,0.00,,,0.00,Wunderground v.1.15,2013-03-29 19:10:00,
2013-03-29 13:14:00,64.7,20.2,30.06,East,85,2.0,9.0,18,0.00,,,0.00,Wunderground v.1.15,2013-03-29 19:14:00,
2013-03-29 13:16:00,64.3,19.8,30.07,ENE,74,2.0,9.0,18,0.00,,,0.00,Wunderground v.1.15,2013-03-29 19:16:00,
2013-03-29 13:18:00,64.3,21.1,30.07,ESE,104,3.0,9.0,19,0.00,,,0.00,Wunderground v.1.15,2013-03-29 19:18:00,
2013-03-29 13:22:00,64.3,21.1,30.07,NE,45,2.0,7.0,19,0.00,,,0.00,Wunderground v.1.15,2013-03-29 19:22:00,
2013-03-29 13:24:00,64.7,21.4,30.07,NW,312,2.0,10.0,19,0.00,,,0.00,Wunderground v.1.15,2013-03-29 19:24:00,
2013-03-29 13:28:00,65.0,20.4,30.07,NNW,346,3.0,10.0,18,0.00,,,0.00,Wunderground v.1.15,2013-03-29 19:28:00,
2013-03-29 13:32:00,65.2,19.2,30.06,NW,315,4.0,9.0,17,0.00,,,0.00,Wunderground v.1.15,2013-03-29 19:32:00,
2013-03-29 13:34:00,65.5,19.5,30.06,NW,316,4.0,9.0,17,0.00,,,0.00,Wunderground v.1.15,2013-03-29 19:34:00,
2013-03-29 13:36:00,65.8,18.3,30.06,North,9,4.0,9.0,16,0.00,,,0.00,Wunderground v.1.15,2013-03-29 19:36:00,
2013-03-29 13:40:00,65.6,19.6,30.06,NNW,342,2.0,9.0,17,0.00,,,0.00,Wunderground v.1.15,2013-03-29 19:40:00,
2013-03-29 13:44:00,65.3,20.7,30.06,NW,306,3.0,9.0,18,0.00,,,0.00,Wunderground v.1.15,2013-03-29 19:44:00,
2013-03-29 13:48:00,65.5,19.5,30.04,NW,312,5.0,9.0,17,0.00,,,0.00,Wunderground v.1.15,2013-03-29 19:48:00,
2013-03-29 13:50:00,65.5,19.5,30.04,NNW,346,5.0,9.0,17,0.00,,,0.00,Wunderground v.1.15,2013-03-29 19:50:00,
2013-03-29 13:52:00,65.3,20.7,30.04,North,5,4.0,9.0,18,0.00,,,0.00,Wunderground v.1.15,2013-03-29 19:52:00,
2013-03-29 13:56:00,65.8,19.7,30.04,NW,313,2.0,9.0,17,0.00,,,0.00,Wunderground v.1.15,2013-03-29 19:56:00,
2013-03-29 13:58:00,65.8,19.7,30.04,NNW,332,2.0,9.0,17,0.00,,,0.00,Wunderground v.1.15,2013-03-29 19:58:00,
2013-03-29 14:00:00,65.8,21.1,30.04,WNW,296,2.0,10.0,18,0.00,,,0.00,Wunderground v.1.15,2013-03-29 20:00:00,
2013-03-29 14:02:00,65.8,19.7,30.04,NW,314,2.0,10.0,17,0.00,,,0.00,Wunderground v.1.15,2013-03-29 20:02:00,
2013-03-29 14:08:00,65.2,20.6,30.04,NE,39,3.0,10.0,18,0.00,,,0.00,Wunderground v.1.15,2013-03-29 20:08:00,
2013-03-29 14:10:00,65.0,20.4,30.04,NW,317,4.0,10.0,18,0.00,,,0.00,Wunderground v.1.15,2013-03-29 20:10:00,
2013-03-29 14:14:00,64.7,20.2,30.04,North,350,3.0,10.0,18,0.00,,,0.00,Wunderground v.1.15,2013-03-29 20:14:00,
2013-03-29 14:18:00,64.7,22.7,30.04,WSW,257,2.0,10.0,20,0.00,,,0.00,Wunderground v.1.15,2013-03-29 20:18:00,
2013-03-29 14:20:00,64.8,20.2,30.04,SSW,207,2.0,2.0,18,0.00,,,0.00,Wunderground v.1.15,2013-03-29 20:20:00,
2013-03-29 14:24:00,65.3,19.3,30.04,SSE,155,2.0,10.0,17,0.00,,,0.00,Wunderground v.1.15,2013-03-29 20:24:00,
2013-03-29 14:26:00,65.6,19.6,30.04,SSE,151,2.0,10.0,17,0.00,,,0.00,Wunderground v.1.15,2013-03-29 20:26:00,
2013-03-29 14:30:00,66.3,20.1,30.04,SSE,153,2.0,8.0,17,0.00,,,0.00,Wunderground v.1.15,2013-03-29 20:30:00,
2013-03-29 14:34:00,66.9,20.6,30.02,ENE,60,1.0,8.0,17,0.00,,,0.00,Wunderground v.1.15,2013-03-29 20:34:00,
2013-03-29 14:36:00,66.9,20.6,30.02,NNE,26,1.0,8.0,17,0.00,,,0.00,Wunderground v.1.15,2013-03-29 20:36:00,
2013-03-29 14:40:00,66.3,20.1,30.02,NNW,338,2.0,2.0,17,0.00,,,0.00,Wunderground v.1.15,2013-03-29 20:40:00,
2013-03-29 14:42:00,66.1,20.0,30.02,NW,308,1.0,8.0,17,0.00,,,0.00,Wunderground v.1.15,2013-03-29 20:42:00,
2013-03-29 14:46:00,65.5,19.5,30.02,NW,311,2.0,8.0,17,0.00,,,0.00,Wunderground v.1.15,2013-03-29 20:46:00,
2013-03-29 14:48:00,65.2,19.2,30.02,NW,311,1.0,8.0,17,0.00,,,0.00,Wunderground v.1.15,2013-03-29 20:48:00,
2013-03-29 14:54:00,64.8,20.2,30.02,WSW,238,1.0,8.0,18,0.00,,,0.00,Wunderground v.1.15,2013-03-29 20:54:00,
2013-03-29 14:58:00,65.0,21.7,30.02,SW,235,1.0,8.0,19,0.00,,,0.00,Wunderground v.1.15,2013-03-29 20:58:00,
2013-03-29 15:00:00,65.5,20.8,30.02,WNW,300,2.0,6.0,18,0.00,,,0.00,Wunderground v.1.15,2013-03-29 21:00:00,
2013-03-29 15:02:00,65.5,19.5,30.02,WSW,238,2.0,6.0,17,0.00,,,0.00,Wunderground v.1.15,2013-03-29 21:02:00,
2013-03-29 15:04:00,65.6,19.6,30.02,SW,236,2.0,6.0,17,0.00,,,0.00,Wunderground v.1.15,2013-03-29 21:04:00,
2013-03-29 15:08:00,65.3,19.3,30.02,SW,234,3.0,6.0,17,0.00,,,0.00,Wunderground v.1.15,2013-03-29 21:08:00,
2013-03-29 15:10:00,65.0,19.1,30.02,SSW,194,4.0,6.0,17,0.00,,,0.00,Wunderground v.1.15,2013-03-29 21:10:00,
2013-03-29 15:12:00,64.7,20.2,30.02,SW,217,4.0,6.0,18,0.00,,,0.00,Wunderground v.1.15,2013-03-29 21:12:00,
2013-03-29 15:18:00,64.2,19.8,30.03,SW,218,3.0,8.0,18,0.00,,,0.00,Wunderground v.1.15,2013-03-29 21:18:00,
2013-03-29 15:20:00,64.3,21.1,30.03,SW,218,3.0,3.0,19,0.00,,,0.00,Wunderground v.1.15,2013-03-29 21:20:00,
2013-03-29 15:22:00,64.3,19.8,30.03,SW,218,2.0,6.0,18,0.00,,,0.00,Wunderground v.1.15,2013-03-29 21:22:00,
2013-03-29 15:24:00,64.2,18.4,30.03,SW,223,2.0,6.0,17,0.00,,,0.00,Wunderground v.1.15,2013-03-29 21:24:00,
2013-03-29 15:28:00,64.2,19.8,30.03,SW,226,2.0,12.0,18,0.00,,,0.00,Wunderground v.1.15,2013-03-29 21:28:00,
2013-03-29 15:30:00,64.2,21.0,30.03,SW,235,3.0,12.0,19,0.00,,,0.00,Wunderground v.1.15,2013-03-29 21:30:00,
2013-03-29 15:32:00,64.2,21.0,30.02,SW,233,3.0,12.0,19,0.00,,,0.00,Wunderground v.1.15,2013-03-29 21:32:00,
2013-03-29 15:38:00,63.5,20.5,30.02,SW,235,5.0,12.0,19,0.00,,,0.00,Wunderground v.1.15,2013-03-29 21:38:00,
2013-03-29 15:42:00,63.9,22.0,30.02,SSW,201,5.0,12.0,20,0.00,,,0.00,Wunderground v.1.15,2013-03-29 21:42:00,
2013-03-29 15:48:00,65.2,20.6,30.02,SW,227,3.0,12.0,18,0.00,,,0.00,Wunderground v.1.15,2013-03-29 21:48:00,
2013-03-29 15:50:00,65.3,19.3,30.02,SW,221,3.0,3.0,17,0.00,,,0.00,Wunderground v.1.15,2013-03-29 21:50:00,
2013-03-29 15:52:00,65.6,19.6,30.02,SW,227,2.0,4.0,17,0.00,,,0.00,Wunderground v.1.15,2013-03-29 21:52:00,
2013-03-29 15:58:00,66.1,20.0,30.02,WSW,241,4.0,12.0,17,0.00,,,0.00,Wunderground v.1.15,2013-03-29 21:58:00,
2013-03-29 16:00:00,66.1,20.0,30.02,SW,224,3.0,8.0,17,0.00,,,0.00,Wunderground v.1.15,2013-03-29 22:00:00,
2013-03-29 16:04:00,65.8,21.1,30.01,SW,232,3.0,8.0,18,0.00,,,0.00,Wunderground v.1.15,2013-03-29 22:04:00,
2013-03-29 16:10:00,66.0,18.5,30.01,South,189,3.0,3.0,16,0.00,,,0.00,Wunderground v.1.15,2013-03-29 22:10:00,
2013-03-29 16:12:00,66.1,18.5,30.01,SSW,205,3.0,8.0,16,0.00,,,0.00,Wunderground v.1.15,2013-03-29 22:12:00,
2013-03-29 16:14:00,66.0,18.5,30.01,SSW,203,3.0,8.0,16,0.00,,,0.00,Wunderground v.1.15,2013-03-29 22:14:00,
2013-03-29 16:20:00,65.3,17.9,30.03,SSW,207,3.0,3.0,16,0.00,,,0.00,Wunderground v.1.15,2013-03-29 22:20:00,
2013-03-29 16:26:00,64.3,17.1,30.03,SSW,211,3.0,8.0,16,0.00,,,0.00,Wunderground v.1.15,2013-03-29 22:26:00,
2013-03-29 16:28:00,64.2,18.4,30.03,SSW,194,3.0,8.0,17,0.00,,,0.00,Wunderground v.1.15,2013-03-29 22:28:00,
2013-03-29 16:32:00,64.2,18.4,30.04,SSW,194,2.0,9.0,17,0.00,,,0.00,Wunderground v.1.15,2013-03-29 22:32:00,
2013-03-29 16:34:00,64.3,18.5,30.04,NW,304,1.0,9.0,17,0.00,,,0.00,Wunderground v.1.15,2013-03-29 22:34:00,
2013-03-29 16:36:00,64.3,18.5,30.04,NW,304,1.0,9.0,17,0.00,,,0.00,Wunderground v.1.15,2013-03-29 22:36:00,
2013-03-29 16:38:00,64.7,18.8,30.04,NW,304,0.0,9.0,17,0.00,,,0.00,Wunderground v.1.15,2013-03-29 22:38:00,
2013-03-29 16:42:00,65.0,17.7,30.04,WNW,301,0.0,9.0,16,0.00,,,0.00,Wunderground v.1.15,2013-03-29 22:42:00,
2013-03-29 16:44:00,65.2,16.3,30.04,WNW,302,1.0,9.0,15,0.00,,,0.00,Wunderground v.1.15,2013-03-29 22:44:00,
2013-03-29 16:46:00,65.3,17.9,30.03,WNW,302,1.0,9.0,16,0.00,,,0.00,Wunderground v.1.15,2013-03-29 22:46:00,
2013-03-29 16:48:00,65.3,17.9,30.03,WNW,302,2.0,9.0,16,0.00,,,0.00,Wunderground v.1.15,2013-03-29 22:48:00,
2013-03-29 16:52:00,65.3,17.9,30.03,NW,316,2.0,9.0,16,0.00,,,0.00,Wunderground v.1.15,2013-03-29 22:52:00,
2013-03-29 16:58:00,64.8,17.5,30.03,NW,316,1.0,9.0,16,0.00,,,0.00,Wunderground v.1.15,2013-03-29 22:58:00,
2013-03-29 17:00:00,64.7,17.4,30.03,NW,316,1.0,8.0,16,0.00,,,0.00,Wunderground v.1.15,2013-03-29 23:00:00,
2013-03-29 17:02:00,64.5,17.3,30.03,NW,315,1.0,8.0,16,0.00,,,0.00,Wunderground v.1.15,2013-03-29 23:02:00,
2013-03-29 17:08:00,64.8,18.9,30.03,NW,315,0.0,8.0,17,0.00,,,0.00,Wunderground v.1.15,2013-03-29 23:08:00,
2013-03-29 17:10:00,65.0,16.2,30.03,NW,315,1.0,8.0,15,0.00,,,0.00,Wunderground v.1.15,2013-03-29 23:10:00,
2013-03-29 17:12:00,64.8,17.5,30.03,East,101,1.0,8.0,16,0.00,,,0.00,Wunderground v.1.15,2013-03-29 23:12:00,
2013-03-29 17:14:00,64.5,15.8,30.03,ESE,102,1.0,8.0,15,0.00,,,0.00,Wunderground v.1.15,2013-03-29 23:14:00,
2013-03-29 17:16:00,64.5,15.8,30.05,South,188,1.0,8.0,15,0.00,,,0.00,Wunderground v.1.15,2013-03-29 23:16:00,
2013-03-29 17:20:00,64.2,17.0,30.05,SW,223,2.0,8.0,16,0.00,,,0.00,Wunderground v.1.15,2013-03-29 23:20:00,
2013-03-29 17:26:00,64.2,17.0,30.05,SW,215,2.0,8.0,16,0.00,,,0.00,Wunderground v.1.15,2013-03-29 23:26:00,
2013-03-29 17:28:00,64.2,15.5,30.05,SW,215,2.0,8.0,15,0.00,,,0.00,Wunderground v.1.15,2013-03-29 23:28:00,
2013-03-29 17:30:00,64.2,17.0,30.05,SW,215,1.0,7.0,16,0.00,,,0.00,Wunderground v.1.15,2013-03-29 23:30:00,
2013-03-29 17:34:00,63.9,16.8,30.05,SW,215,1.0,7.0,16,0.00,,,0.00,Wunderground v.1.15,2013-03-29 23:34:00,
2013-03-29 17:36:00,63.9,16.8,30.05,SW,215,1.0,7.0,16,0.00,,,0.00,Wunderground v.1.15,2013-03-29 23:36:00,
2013-03-29 17:40:00,63.5,16.4,30.05,SW,215,1.0,1.0,16,0.00,,,0.00,Wunderground v.1.15,2013-03-29 23:40:00,
2013-03-29 17:44:00,63.2,17.6,30.05,SW,215,1.0,7.0,17,0.00,,,0.00,Wunderground v.1.15,2013-03-29 23:44:00,
2013-03-29 17:50:00,63.2,18.9,30.07,SW,217,1.0,1.0,18,0.00,,,0.00,Wunderground v.1.15,2013-03-29 23:50:00,
2013-03-29 17:52:00,63.2,17.6,30.07,SW,217,1.0,7.0,17,0.00,,,0.00,Wunderground v.1.15,2013-03-29 23:52:00,
2013-03-29 17:58:00,63.4,16.4,30.07,North,32767,1.0,7.0,16,0.00,,,0.00,Wunderground v.1.15,2013-03-29 23:58:00,
2013-03-29 18:00:00,63.5,16.4,30.07,NNE,15,2.0,6.0,16,0.00,,,0.00,Wunderground v.1.15,2013-03-30 00:00:00,
2013-03-29 18:04:00,63.5,19.2,30.06,North,11,4.0,6.0,18,0.00,,,0.00,Wunderground v.1.15,2013-03-30 00:04:00,
2013-03-29 18:08:00,63.1,18.9,30.06,North,11,5.0,12.0,18,0.00,,,0.00,Wunderground v.1.15,2013-03-30 00:08:00,
2013-03-29 18:10:00,62.9,18.7,30.06,NE,38,6.0,6.0,18,0.00,,,0.00,Wunderground v.1.15,2013-03-30 00:10:00,
2013-03-29 18:14:00,62.7,18.5,30.06,NNE,30,5.0,6.0,18,0.00,,,0.00,Wunderground v.1.15,2013-03-30 00:14:00,
2013-03-29 18:18:00,62.7,17.2,30.06,NNE,28,4.0,6.0,17,0.00,,,0.00,Wunderground v.1.15,2013-03-30 00:18:00,
2013-03-29 18:20:00,62.7,18.5,30.06,NNE,27,3.0,3.0,18,0.00,,,0.00,Wunderground v.1.15,2013-03-30 00:20:00,
2013-03-29 18:22:00,62.7,18.5,30.06,NNE,28,2.0,5.0,18,0.00,,,0.00,Wunderground v.1.15,2013-03-30 00:22:00,
2013-03-29 18:24:00,62.7,18.5,30.06,NNE,27,1.0,5.0,18,0.00,,,0.00,Wunderground v.1.15,2013-03-30 00:24:00,
2013-03-29 18:28:00,62.6,17.1,30.06,NW,319,0.0,5.0,17,0.00,,,0.00,Wunderground v.1.15,2013-03-30 00:28:00,
2013-03-29 18:30:00,62.7,17.2,30.06,NW,321,1.0,1.0,17,0.00,,,0.00,Wunderground v.1.15,2013-03-30 00:30:00,
2013-03-29 18:36:00,62.9,17.4,30.06,NW,321,1.0,7.0,17,0.00,,,0.00,Wunderground v.1.15,2013-03-30 00:36:00,
2013-03-29 18:40:00,63.1,18.9,30.06,SSE,167,1.0,1.0,18,0.00,,,0.00,Wunderground v.1.15,2013-03-30 00:40:00,
2013-03-29 18:42:00,63.1,18.9,30.06,ESE,106,1.0,7.0,18,0.00,,,0.00,Wunderground v.1.15,2013-03-30 00:42:00,
2013-03-29 18:44:00,63.1,18.9,30.06,ESE,111,2.0,7.0,18,0.00,,,0.00,Wunderground v.1.15,2013-03-30 00:44:00,
2013-03-29 18:48:00,62.9,17.4,30.06,ESE,113,2.0,7.0,17,0.00,,,0.00,Wunderground v.1.15,2013-03-30 00:48:00,
2013-03-29 18:50:00,62.9,18.7,30.06,ESE,113,2.0,2.0,18,0.00,,,0.00,Wunderground v.1.15,2013-03-30 00:50:00,
2013-03-29 18:54:00,63.1,18.9,30.06,ESE,112,1.0,7.0,18,0.00,,,0.00,Wunderground v.1.15,2013-03-30 00:54:00,
2013-03-29 18:56:00,63.1,17.5,30.06,ESE,112,0.0,7.0,17,0.00,,,0.00,Wunderground v.1.15,2013-03-30 00:56:00,
2013-03-29 18:58:00,63.1,17.5,30.06,ESE,117,0.0,7.0,17,0.00,,,0.00,Wunderground v.1.15,2013-03-30 00:58:00,
2013-03-29 19:00:00,63.2,16.2,30.06,ESE,117,1.0,1.0,16,0.00,,,0.00,Wunderground v.1.15,2013-03-30 01:00:00,
2013-03-29 19:02:00,63.2,17.6,30.06,ESE,118,1.0,5.0,17,0.00,,,0.00,Wunderground v.1.15,2013-03-30 01:02:00,
2013-03-29 19:04:00,63.1,16.1,30.06,ESE,117,1.0,5.0,16,0.00,,,0.00,Wunderground v.1.15,2013-03-30 01:04:00,
2013-03-29 19:10:00,62.9,18.7,30.06,South,173,1.0,5.0,18,0.00,,,0.00,Wunderground v.1.15,2013-03-30 01:10:00,
2013-03-29 19:12:00,62.7,18.5,30.06,South,176,1.0,5.0,18,0.00,,,0.00,Wunderground v.1.15,2013-03-30 01:12:00,
2013-03-29 19:14:00,62.6,17.1,30.06,SW,231,2.0,6.0,17,0.00,,,0.00,Wunderground v.1.15,2013-03-30 01:14:00,
2013-03-29 19:16:00,62.3,16.9,30.05,WSW,243,3.0,6.0,17,0.00,,,0.00,Wunderground v.1.15,2013-03-30 01:16:00,
2013-03-29 19:18:00,62.1,16.7,30.05,WSW,243,3.0,6.0,17,0.00,,,0.00,Wunderground v.1.15,2013-03-30 01:18:00,
2013-03-29 19:20:00,61.8,16.5,30.05,WSW,239,3.0,5.0,17,0.00,,,0.00,Wunderground v.1.15,2013-03-30 01:20:00,
2013-03-29 19:24:00,61.5,17.5,30.05,WSW,239,3.0,5.0,18,0.00,,,0.00,Wunderground v.1.15,2013-03-30 01:24:00,
2013-03-29 19:26:00,61.3,17.4,30.05,WSW,239,2.0,5.0,18,0.00,,,0.00,Wunderground v.1.15,2013-03-30 01:26:00,
2013-03-29 19:28:00,61.2,17.3,30.05,WSW,239,2.0,5.0,18,0.00,,,0.00,Wunderground v.1.15,2013-03-30 01:28:00,
2013-03-29 19:32:00,60.9,17.0,30.06,WSW,239,1.0,3.0,18,0.00,,,0.00,Wunderground v.1.15,2013-03-30 01:32:00,
2013-03-29 19:34:00,60.7,16.9,30.06,WSW,239,1.0,11.0,18,0.00,,,0.00,Wunderground v.1.15,2013-03-30 01:34:00,
2013-03-29 19:38:00,60.2,17.7,30.06,WSW,256,1.0,11.0,19,0.00,,,0.00,Wunderground v.1.15,2013-03-30 01:38:00,
2013-03-29 19:40:00,60.1,17.6,30.06,West,261,1.0,11.0,19,0.00,,,0.00,Wunderground v.1.15,2013-03-30 01:40:00,
2013-03-29 19:42:00,59.9,18.7,30.06,West,261,0.0,11.0,20,0.00,,,0.00,Wunderground v.1.15,2013-03-30 01:42:00,
2013-03-29 19:48:00,59.6,19.6,30.07,West,261,0.0,11.0,21,0.00,,,0.00,Wunderground v.1.15,2013-03-30 01:48:00,
2013-03-29 19:50:00,59.5,19.5,30.07,West,261,0.0,11.0,21,0.00,,,0.00,Wunderground v.1.15,2013-03-30 01:50:00,
2013-03-29 19:56:00,59.2,20.3,30.07,WNW,300,1.0,11.0,22,0.00,,,0.00,Wunderground v.1.15,2013-03-30 01:56:00,
2013-03-29 19:58:00,59.0,20.2,30.07,WNW,300,1.0,11.0,22,0.00,,,0.00,Wunderground v.1.15,2013-03-30 01:58:00,
2013-03-29 20:04:00,58.9,21.1,30.08,WNW,301,1.0,4.0,23,0.00,,,0.00,Wunderground v.1.15,2013-03-30 02:04:00,
2013-03-29 20:08:00,58.7,21.0,30.08,WNW,302,1.0,4.0,23,0.00,,,0.00,Wunderground v.1.15,2013-03-30 02:08:00,
2013-03-29 20:10:00,58.6,20.9,30.08,WNW,301,1.0,4.0,23,0.00,,,0.00,Wunderground v.1.15,2013-03-30 02:10:00,
2013-03-29 20:12:00,58.4,20.7,30.08,WNW,302,1.0,1.0,23,0.00,,,0.00,Wunderground v.1.15,2013-03-30 02:12:00,
2013-03-29 20:18:00,58.1,21.4,30.04,WNW,295,1.0,4.0,24,0.00,,,0.00,Wunderground v.1.15,2013-03-30 02:18:00,
2013-03-29 20:22:00,57.8,21.2,30.04,WNW,295,1.0,1.0,24,0.00,,,0.00,Wunderground v.1.15,2013-03-30 02:22:00,
2013-03-29 20:26:00,57.5,21.9,30.04,WNW,295,1.0,4.0,25,0.00,,,0.00,Wunderground v.1.15,2013-03-30 02:26:00,
2013-03-29 20:32:00,57.0,21.5,30.06,WNW,295,1.0,6.0,25,0.00,,,0.00,Wunderground v.1.15,2013-03-30 02:32:00,
2013-03-29 20:38:00,56.7,21.2,30.06,WNW,300,1.0,6.0,25,0.00,,,0.00,Wunderground v.1.15,2013-03-30 02:38:00,
2013-03-29 20:40:00,56.6,21.1,30.06,WNW,300,1.0,6.0,25,0.00,,,0.00,Wunderground v.1.15,2013-03-30 02:40:00,
2013-03-29 20:42:00,56.6,21.1,30.06,WNW,300,1.0,6.0,25,0.00,,,0.00,Wunderground v.1.15,2013-03-30 02:42:00,
2013-03-29 20:46:00,56.5,22.0,30.07,WNW,300,1.0,6.0,26,0.00,,,0.00,Wunderground v.1.15,2013-03-30 02:46:00,
2013-03-29 20:48:00,56.5,22.0,30.07,WNW,300,1.0,6.0,26,0.00,,,0.00,Wunderground v.1.15,2013-03-30 02:48:00,
2013-03-29 20:52:00,56.5,22.0,30.07,WNW,300,1.0,1.0,26,0.00,,,0.00,Wunderground v.1.15,2013-03-30 02:52:00,
2013-03-29 20:54:00,56.3,21.8,30.07,WNW,300,1.0,6.0,26,0.00,,,0.00,Wunderground v.1.15,2013-03-30 02:54:00,
2013-03-29 21:02:00,55.9,21.5,30.08,WNW,300,0.0,5.0,26,0.00,,,0.00,Wunderground v.1.15,2013-03-30 03:02:00,
2013-03-29 21:08:00,55.4,21.9,30.08,WNW,300,0.0,5.0,27,0.00,,,0.00,Wunderground v.1.15,2013-03-30 03:08:00,
2013-03-29 21:12:00,55.1,21.7,30.08,WNW,300,0.0,5.0,27,0.00,,,0.00,Wunderground v.1.15,2013-03-30 03:12:00,
2013-03-29 21:14:00,55.0,21.6,30.08,WNW,300,0.0,5.0,27,0.00,,,0.00,Wunderground v.1.15,2013-03-30 03:14:00,
2013-03-29 21:16:00,54.8,21.4,30.06,WNW,300,0.0,5.0,27,0.00,,,0.00,Wunderground v.1.15,2013-03-30 03:16:00,
2013-03-29 21:18:00,54.7,22.2,30.06,WNW,300,0.0,5.0,28,0.00,,,0.00,Wunderground v.1.15,2013-03-30 03:18:00,
2013-03-29 21:22:00,54.2,21.8,30.06,WNW,300,0.0,5.0,28,0.00,,,0.00,Wunderground v.1.15,2013-03-30 03:22:00,
2013-03-29 21:24:00,54.1,20.8,30.06,WNW,300,0.0,5.0,27,0.00,,,0.00,Wunderground v.1.15,2013-03-30 03:24:00,
2013-03-29 21:28:00,53.5,21.2,30.06,WNW,300,1.0,5.0,28,0.00,,,0.00,Wunderground v.1.15,2013-03-30 03:28:00,
2013-03-29 21:32:00,52.5,21.1,30.08,WNW,300,1.0,1.0,29,0.00,,,0.00,Wunderground v.1.15,2013-03-30 03:32:00,
2013-03-29 21:36:00,51.7,21.2,30.08,WNW,300,1.0,1.0,30,0.00,,,0.00,Wunderground v.1.15,2013-03-30 03:36:00,
2013-03-29 21:38:00,51.4,21.7,30.08,WNW,300,0.0,1.0,31,0.00,,,0.00,Wunderground v.1.15,2013-03-30 03:38:00,
2013-03-29 21:42:00,51.0,22.1,30.08,WNW,300,0.0,0.0,32,0.00,,,0.00,Wunderground v.1.15,2013-03-30 03:42:00,
2013-03-29 21:44:00,50.8,22.0,30.08,WNW,300,0.0,0.0,32,0.00,,,0.00,Wunderground v.1.15,2013-03-30 03:44:00,
2013-03-29 21:46:00,50.7,22.6,30.10,WNW,300,0.0,0.0,33,0.00,,,0.00,Wunderground v.1.15,2013-03-30 03:46:00,
2013-03-29 21:48:00,50.5,21.7,30.10,WNW,300,0.0,0.0,32,0.00,,,0.00,Wunderground v.1.15,2013-03-30 03:48:00,
2013-03-29 21:52:00,50.2,22.2,30.10,WNW,300,0.0,0.0,33,0.00,,,0.00,Wunderground v.1.15,2013-03-30 03:52:00,
2013-03-29 21:58:00,49.6,22.3,30.10,WNW,300,0.0,1.0,34,0.00,,,0.00,Wunderground v.1.15,2013-03-30 03:58:00,
2013-03-29 22:00:00,49.4,22.2,30.10,WNW,300,0.0,1.0,34,0.00,,,0.00,Wunderground v.1.15,2013-03-30 04:00:00,
2013-03-29 22:02:00,49.2,22.7,30.12,WNW,300,0.0,1.0,35,0.00,,,0.00,Wunderground v.1.15,2013-03-30 04:02:00,
2013-03-29 22:04:00,49.1,22.6,30.12,WNW,300,0.0,1.0,35,0.00,,,0.00,Wunderground v.1.15,2013-03-30 04:04:00,
2013-03-29 22:08:00,48.9,22.4,30.12,WNW,300,0.0,1.0,35,0.00,,,0.00,Wunderground v.1.15,2013-03-30 04:08:00,
2013-03-29 22:12:00,48.9,23.1,30.12,WNW,300,0.0,1.0,36,0.00,,,0.00,Wunderground v.1.15,2013-03-30 04:12:00,
2013-03-29 22:18:00,48.8,22.3,30.11,WNW,300,0.0,2.0,35,0.00,,,0.00,Wunderground v.1.15,2013-03-30 04:18:00,
2013-03-29 22:20:00,48.8,23.0,30.11,WNW,300,0.0,1.0,36,0.00,,,0.00,Wunderground v.1.15,2013-03-30 04:20:00,
2013-03-29 22:22:00,48.8,23.0,30.11,WNW,300,0.0,1.0,36,0.00,,,0.00,Wunderground v.1.15,2013-03-30 04:22:00,
2013-03-29 22:24:00,48.8,23.0,30.11,WNW,300,0.0,1.0,36,0.00,,,0.00,Wunderground v.1.15,2013-03-30 04:24:00,
2013-03-29 22:28:00,48.6,22.8,30.11,WNW,300,0.0,1.0,36,0.00,,,0.00,Wunderground v.1.15,2013-03-30 04:28:00,
2013-03-29 22:30:00,48.6,22.8,30.11,WNW,300,0.0,2.0,36,0.00,,,0.00,Wunderground v.1.15,2013-03-30 04:30:00,
2013-03-29 22:32:00,48.6,22.8,30.12,WNW,300,0.0,2.0,36,0.00,,,0.00,Wunderground v.1.15,2013-03-30 04:32:00,
2013-03-29 22:34:00,48.5,23.4,30.12,WNW,300,0.0,2.0,37,0.00,,,0.00,Wunderground v.1.15,2013-03-30 04:34:00,
2013-03-29 22:38:00,48.3,23.2,30.12,WNW,300,0.0,2.0,37,0.00,,,0.00,Wunderground v.1.15,2013-03-30 04:38:00,
2013-03-29 22:40:00,48.2,23.7,30.12,WNW,300,0.0,2.0,38,0.00,,,0.00,Wunderground v.1.15,2013-03-30 04:40:00,
2013-03-29 22:44:00,47.7,23.9,30.12,WNW,300,0.0,2.0,39,0.00,,,0.00,Wunderground v.1.15,2013-03-30 04:44:00,
2013-03-29 22:46:00,47.6,23.8,30.12,WNW,300,0.0,2.0,39,0.00,,,0.00,Wunderground v.1.15,2013-03-30 04:46:00,
2013-03-29 22:48:00,47.6,23.8,30.12,WNW,300,0.0,2.0,39,0.00,,,0.00,Wunderground v.1.15,2013-03-30 04:48:00,
2013-03-29 22:52:00,47.3,23.6,30.12,WNW,300,0.0,2.0,39,0.00,,,0.00,Wunderground v.1.15,2013-03-30 04:52:00,
2013-03-29 22:54:00,47.3,24.2,30.12,WNW,300,0.0,2.0,40,0.00,,,0.00,Wunderground v.1.15,2013-03-30 04:54:00,
2013-03-29 22:58:00,47.1,24.0,30.12,WNW,300,0.0,2.0,40,0.00,,,0.00,Wunderground v.1.15,2013-03-30 04:58:00,
2013-03-29 23:00:00,47.0,24.5,30.12,WNW,300,0.0,0.0,41,0.00,,,0.00,Wunderground v.1.15,2013-03-30 05:00:00,
2013-03-29 23:02:00,46.8,24.3,30.14,WNW,300,0.0,0.0,41,0.00,,,0.00,Wunderground v.1.15,2013-03-30 05:02:00,
2013-03-29 23:04:00,46.7,24.8,30.14,WNW,300,0.0,0.0,42,0.00,,,0.00,Wunderground v.1.15,2013-03-30 05:04:00,
2013-03-29 23:10:00,46.2,24.9,30.14,WNW,300,0.0,0.0,43,0.00,,,0.00,Wunderground v.1.15,2013-03-30 05:10:00,
2013-03-29 23:12:00,46.1,25.4,30.14,WNW,300,0.0,0.0,44,0.00,,,0.00,Wunderground v.1.15,2013-03-30 05:12:00,
2013-03-29 23:14:00,46.0,25.3,30.14,WNW,300,0.0,0.0,44,0.00,,,0.00,Wunderground v.1.15,2013-03-30 05:14:00,
2013-03-29 23:18:00,45.8,25.1,30.14,WNW,300,0.0,1.0,44,0.00,,,0.00,Wunderground v.1.15,2013-03-30 05:18:00,
2013-03-29 23:20:00,45.8,24.5,30.14,WNW,300,0.0,0.0,43,0.00,,,0.00,Wunderground v.1.15,2013-03-30 05:20:00,
2013-03-29 23:22:00,45.8,24.5,30.14,West,273,0.0,1.0,43,0.00,,,0.00,Wunderground v.1.15,2013-03-30 05:22:00,
2013-03-29 23:26:00,46.1,24.8,30.14,SW,221,0.0,1.0,43,0.00,,,0.00,Wunderground v.1.15,2013-03-30 05:26:00,
2013-03-29 23:28:00,46.1,24.8,30.14,SW,219,0.0,1.0,43,0.00,,,0.00,Wunderground v.1.15,2013-03-30 05:28:00,
2013-03-29 23:30:00,46.2,25.5,30.14,SW,219,0.0,3.0,44,0.00,,,0.00,Wunderground v.1.15,2013-03-30 05:30:00,
2013-03-29 23:34:00,46.2,24.9,30.13,SW,219,0.0,3.0,43,0.00,,,0.00,Wunderground v.1.15,2013-03-30 05:34:00,
2013-03-29 23:38:00,46.4,25.1,30.13,SW,219,0.0,3.0,43,0.00,,,0.00,Wunderground v.1.15,2013-03-30 05:38:00,
2013-03-29 23:40:00,46.7,24.2,30.13,ESE,116,0.0,3.0,41,0.00,,,0.00,Wunderground v.1.15,2013-03-30 05:40:00,
2013-03-29 23:42:00,47.0,24.5,30.13,ESE,116,0.0,3.0,41,0.00,,,0.00,Wunderground v.1.15,2013-03-30 05:42:00,
2013-03-29 23:44:00,47.4,24.3,30.13,ESE,116,0.0,3.0,40,0.00,,,0.00,Wunderground v.1.15,2013-03-30 05:44:00,
2013-03-29 23:48:00,47.7,24.5,30.12,ESE,116,0.0,3.0,40,0.00,,,0.00,Wunderground v.1.15,2013-03-30 05:48:00,
2013-03-29 23:52:00,47.9,24.7,30.12,ESE,119,1.0,3.0,40,0.00,,,0.00,Wunderground v.1.15,2013-03-30 05:52:00,
2013-03-29 23:54:00,47.9,24.7,30.12,ESE,120,1.0,3.0,40,0.00,,,0.00,Wunderground v.1.15,2013-03-30 05:54:00,
2013-03-29 23:58:00,47.7,25.1,30.12,ESE,121,1.0,3.0,41,0.00,,,0.00,Wunderground v.1.15,2013-03-30 05:58:00,